Location: Petruro
(41.0333°N, 14.7833°E)
Time: 05:42:34
(UTC+00:00)

MSX - Visible Passes

Search period start: 18 October 2021 00:00
Search period end: 28 October 2021 00:00
Orbit: 896 x 905 km, 98.8° (Epoch: 17 October)

Date Brightness Start Highest point End Pass type
(mag) Time Alt. Az. Time Alt. Az. Time Alt. Az.
18 Oct 6.6 00:53:44 10° NE 00:54:07 12° NE 00:54:07 12° NE visible
18 Oct 5.5 02:35:07 10° N 02:37:09 21° NNW 02:37:09 21° NNW visible
19 Oct 6.6 00:56:23 10° NE 00:56:43 11° NE 00:56:43 11° NE visible
19 Oct 5.6 02:37:52 10° N 02:39:46 20° NNW 02:39:46 20° NNW visible
20 Oct 6.6 00:59:01 10° NNE 00:59:20 11° NE 00:59:20 11° NE visible
20 Oct 5.6 02:40:37 10° N 02:42:23 19° NNW 02:42:23 19° NNW visible
21 Oct 6.6 01:01:40 10° NNE 01:01:57 11° NNE 01:01:57 11° NNE visible
21 Oct 5.7 02:43:22 10° N 02:45:00 18° NNW 02:45:00 18° NNW visible
22 Oct 6.6 01:04:19 10° NNE 01:04:34 11° NNE 01:04:34 11° NNE visible
22 Oct 5.7 02:46:08 10° N 02:47:36 17° NNW 02:47:36 17° NNW visible
23 Oct 6.6 01:06:58 10° NNE 01:07:10 11° NNE 01:07:10 11° NNE visible
23 Oct 5.8 02:48:53 10° N 02:50:13 16° NNW 02:50:13 16° NNW visible
24 Oct 6.6 01:09:38 10° NNE 01:09:47 11° NNE 01:09:47 11° NNE visible
24 Oct 5.8 02:51:39 10° N 02:52:50 15° NNW 02:52:50 15° NNW visible
25 Oct 6.6 01:12:18 10° NNE 01:12:24 10° NNE 01:12:24 10° NNE visible
25 Oct 5.8 02:54:24 10° N 02:55:26 15° NNW 02:55:26 15° NNW visible
26 Oct 6.6 01:14:58 10° NNE 01:15:01 10° NNE 01:15:01 10° NNE visible
26 Oct 5.9 02:57:10 10° N 02:58:03 14° NNW 02:58:03 14° NNW visible
27 Oct 5.9 02:59:56 10° N 03:00:39 13° NNW 03:00:39 13° NNW visible
